This is the latest recevied weather packets stored in our database for station/object N0FDH. If no packets are shown the sender has not sent any weather packets the latest 10 day(s).
| Time | Temp. | Humidity | Pressure | Rain* | Wind** | Luminosity | Snow |
|---|---|---|---|---|---|---|---|
| 1777456625 | 2.78° C | 90% | 1016.5 hPa | 4.83 mm | - | 0 W/m² | - |
| 1777456321 | 3.33° C | 88% | 1016.6 hPa | 1.78 mm | - | 0 W/m² | - |
| 1777456017 | 3.89° C | 85% | 1016.4 hPa | 0 mm | - | 0 W/m² | - |
| 1777455713 | 4.44° C | 81% | 1016.5 hPa | 0 mm | - | 0 W/m² | - |
| 1777455410 | 4.44° C | 77% | 1016.3 hPa | 0 mm | - | 0 W/m² | - |
| 1777455107 | 5° C | 74% | 1016.3 hPa | 0 mm | - | 0 W/m² | - |
| 1777454804 | 5° C | 72% | 1016 hPa | 0 mm | - | 0 W/m² | - |
| 1777454499 | 5.56° C | 68% | 1015.8 hPa | 0 mm | - | 0 W/m² | - |
| 1777454196 | 5.56° C | 69% | 1015.8 hPa | 0 mm | - | 0 W/m² | - |
| 1777453893 | 5.56° C | 66% | 1015.6 hPa | 0 mm | - | 0 W/m² | - |
| 1777453590 | 5.56° C | 68% | 1015.6 hPa | 0 mm | - | 0 W/m² | - |
| 1777453286 | 5.56° C | 68% | 1015.7 hPa | 0 mm | - | 0 W/m² | - |
| 1777452984 | 5.56° C | 66% | 1015.5 hPa | 0 mm | - | 0 W/m² | - |
| 1777452681 | 5.56° C | 65% | 1015.6 hPa | 0 mm | - | 0 W/m² | - |
| 1777452377 | 5.56° C | 66% | 1015.5 hPa | 0 mm | - | 0 W/m² | - |
| 1777452073 | 5.56° C | 65% | 1015.3 hPa | 0 mm | - | 0 W/m² | - |
| 1777451768 | 5° C | 66% | 1015.4 hPa | 0 mm | - | 0 W/m² | - |
| 1777451464 | 5° C | 65% | 1015.3 hPa | 0 mm | - | 0 W/m² | - |
| 1777451160 | 5° C | 65% | 1015.5 hPa | 0 mm | - | 0 W/m² | - |
| 1777450857 | 5° C | 66% | 1015.3 hPa | 0 mm | - | 0 W/m² | - |
| 1777450551 | 5° C | 67% | 1015.4 hPa | 0 mm | - | 0 W/m² | - |
| 1777450248 | 5° C | 66% | 1015.4 hPa | 0 mm | - | 0 W/m² | - |
| 1777449944 | 5° C | 66% | 1015.4 hPa | 0 mm | - | 0 W/m² | - |
| 1777449642 | 5° C | 66% | 1015.2 hPa | 0 mm | - | 0 W/m² | - |
| 1777449337 | 5° C | 65% | 1015.1 hPa | 0 mm | - | 0 W/m² | - |
* Rain latest hour (hover to see other rain measurements)
** Current wind speed in m/s (hover to see current wind gust speed)